AAL972 NFFN-PHNL

Flight info

Callsign AAL972
Flight time N/A
Altitude 37000
Route ALPHA KABAR A579 CUFFY/N0476F390 A579 CARRP OPACA4
Aircraft B77W/H-SDE1E2E3FGHIJ2J3J4J5M1RWXY/LB1D1

Departure

Time N/A
Airport Nadi International Airport (NFFN)

Arrival

Time 2026-05-08 00:20
Airport Daniel K. Inouye International Airport (PHNL)
Time Latitude Longitude Altitude Speed Heading
2026-05-07 20:22 -5.22049 -174.76490 36925 ft 486 kts 29°
2026-05-07 20:22 -5.19157 -174.74749 36925 ft 485 kts 30°
2026-05-07 20:23 -5.13375 -174.71268 36931 ft 485 kts 30°
2026-05-07 20:23 -5.07592 -174.67786 36927 ft 484 kts 30°
2026-05-07 20:24 -5.01819 -174.64312 36923 ft 484 kts 30°
2026-05-07 20:24 -4.96056 -174.60795 36928 ft 485 kts 30°
2026-05-07 20:25 -4.90320 -174.57226 36931 ft 486 kts 30°
2026-05-07 20:25 -4.84575 -174.53648 36929 ft 486 kts 30°
2026-05-07 20:26 -4.78828 -174.50080 36931 ft 486 kts 30°
2026-05-07 20:26 -4.73077 -174.46515 36927 ft 486 kts 30°
2026-05-07 20:27 -4.67321 -174.42950 36923 ft 486 kts 30°
2026-05-07 20:27 -4.61576 -174.39392 36926 ft 485 kts 30°
2026-05-07 20:28 -4.55871 -174.35859 36925 ft 485 kts 30°
2026-05-07 20:28 -4.50130 -174.32304 36928 ft 484 kts 30°
2026-05-07 20:29 -4.44399 -174.28756 36928 ft 484 kts 30°
2026-05-07 20:29 -4.38671 -174.25210 36922 ft 485 kts 30°
2026-05-07 20:30 -4.32928 -174.21657 36930 ft 486 kts 30°
2026-05-07 20:30 -4.27171 -174.18094 36931 ft 487 kts 30°
2026-05-07 20:31 -4.21404 -174.14527 36924 ft 487 kts 31°
2026-05-07 20:31 -4.15611 -174.10944 36924 ft 488 kts 30°
2026-05-07 20:32 -4.09865 -174.07390 36919 ft 487 kts 31°
2026-05-07 20:32 -4.04087 -174.03817 36919 ft 487 kts 30°
2026-05-07 20:33 -3.98333 -174.00260 36921 ft 486 kts 31°
2026-05-07 20:33 -3.92588 -173.96709 36923 ft 485 kts 30°
2026-05-07 20:34 -3.86842 -173.93164 36921 ft 484 kts 31°
2026-05-07 20:34 -3.81104 -173.89622 36913 ft 485 kts 30°
2026-05-07 20:35 -3.75358 -173.86073 36927 ft 485 kts 31°
2026-05-07 20:35 -3.69638 -173.82540 36924 ft 487 kts 30°
2026-05-07 20:36 -3.63871 -173.78978 36921 ft 487 kts 31°
2026-05-07 20:36 -3.58099 -173.75413 36922 ft 488 kts 31°
2026-05-07 20:37 -3.52316 -173.71843 36924 ft 488 kts 30°
2026-05-07 20:37 -3.46541 -173.68277 36921 ft 488 kts 31°
2026-05-07 20:38 -3.40760 -173.64708 36918 ft 488 kts 31°
2026-05-07 20:38 -3.34986 -173.61145 36918 ft 487 kts 31°
2026-05-07 20:39 -3.29213 -173.57583 36920 ft 487 kts 30°
2026-05-07 20:39 -3.23445 -173.54024 36921 ft 487 kts 30°
2026-05-07 20:40 -3.17675 -173.50465 36911 ft 488 kts 30°
2026-05-07 20:40 -3.11894 -173.46898 36921 ft 488 kts 30°
2026-05-07 20:41 -3.06101 -173.43325 36921 ft 489 kts 30°
2026-05-07 20:41 -3.00299 -173.39747 36930 ft 490 kts 30°
2026-05-07 20:42 -2.94503 -173.36173 36919 ft 489 kts 30°
2026-05-07 20:42 -2.88726 -173.32612 36919 ft 488 kts 30°
2026-05-07 20:43 -2.82947 -173.29049 36916 ft 487 kts 30°
2026-05-07 20:43 -2.77186 -173.25498 36918 ft 486 kts 30°
2026-05-07 20:44 -2.71436 -173.21955 36919 ft 485 kts 30°
2026-05-07 20:44 -2.65731 -173.18439 36917 ft 485 kts 30°
2026-05-07 20:45 -2.59948 -173.14876 36923 ft 485 kts 30°
2026-05-07 20:45 -2.54240 -173.11359 36920 ft 485 kts 30°
2026-05-07 20:46 -2.48492 -173.07818 36916 ft 485 kts 31°
2026-05-07 20:46 -2.42737 -173.04273 36919 ft 486 kts 31°
2026-05-07 20:47 -2.36979 -173.00727 36918 ft 486 kts 30°
2026-05-07 20:47 -2.31216 -172.97178 36915 ft 487 kts 30°
2026-05-07 20:48 -2.25451 -172.93628 36919 ft 487 kts 31°
2026-05-07 20:48 -2.19685 -172.90078 36914 ft 487 kts 30°
2026-05-07 20:49 -2.13911 -172.86523 36909 ft 486 kts 30°
2026-05-07 20:49 -2.08150 -172.82976 36915 ft 486 kts 31°
2026-05-07 20:50 -2.02438 -172.79460 36916 ft 486 kts 31°
2026-05-07 20:50 -1.96687 -172.75920 36927 ft 485 kts 31°
2026-05-07 20:51 -1.90949 -172.72389 36911 ft 483 kts 31°
2026-05-07 20:51 -1.85232 -172.68870 36914 ft 482 kts 31°
2026-05-07 20:52 -1.79530 -172.65361 36916 ft 481 kts 31°
2026-05-07 20:52 -1.73837 -172.61858 36914 ft 480 kts 30°
2026-05-07 20:53 -1.68149 -172.58359 36918 ft 480 kts 30°
2026-05-07 20:53 -1.62455 -172.54856 36918 ft 481 kts 31°
2026-05-07 20:54 -1.57720 -172.51942 36917 ft 481 kts 31°
2026-05-07 20:54 -1.52024 -172.48438 36919 ft 481 kts 30°
2026-05-07 20:55 -1.46316 -172.44928 36921 ft 481 kts 31°
2026-05-07 20:55 -1.40615 -172.41421 36915 ft 481 kts 30°
2026-05-07 20:56 -1.34918 -172.37917 36916 ft 480 kts 30°
2026-05-07 20:56 -1.29242 -172.34426 36911 ft 479 kts 30°
2026-05-07 20:57 -1.23581 -172.30944 36914 ft 477 kts 30°
2026-05-07 20:57 -1.17932 -172.27471 36914 ft 476 kts 30°
2026-05-07 20:58 -1.12294 -172.24003 36918 ft 475 kts 30°
2026-05-07 20:58 -1.06669 -172.20545 36914 ft 474 kts 31°
2026-05-07 20:59 -1.01047 -172.17088 36914 ft 474 kts 31°
2026-05-07 20:59 -0.95431 -172.13635 36914 ft 474 kts 31°
2026-05-07 21:00 -0.89808 -172.10178 36919 ft 474 kts 30°
2026-05-07 21:00 -0.84184 -172.06722 36923 ft 475 kts 31°
2026-05-07 21:01 -0.78555 -172.03261 36922 ft 475 kts 31°
2026-05-07 21:01 -0.72955 -171.99818 36918 ft 476 kts 31°
2026-05-07 21:02 -0.67317 -171.96351 36918 ft 476 kts 31°
2026-05-07 21:02 -0.61675 -171.92884 36917 ft 476 kts 31°
2026-05-07 21:03 -0.56027 -171.89412 36916 ft 476 kts 30°
2026-05-07 21:03 -0.50385 -171.85944 36917 ft 476 kts 31°
2026-05-07 21:04 -0.44741 -171.82475 36916 ft 476 kts 30°
2026-05-07 21:04 -0.39102 -171.79009 36917 ft 476 kts 31°
2026-05-07 21:05 -0.33466 -171.75544 36920 ft 475 kts 30°
2026-05-07 21:05 -0.27838 -171.72084 36917 ft 475 kts 30°
2026-05-07 21:06 -0.22213 -171.68626 36919 ft 474 kts 31°
2026-05-07 21:06 -0.16592 -171.65172 36923 ft 474 kts 31°
2026-05-07 21:07 -0.10975 -171.61720 36919 ft 474 kts 31°
2026-05-07 21:07 -0.05374 -171.58277 36919 ft 474 kts 31°
2026-05-07 21:08 0.00241 -171.54827 36919 ft 474 kts 31°
2026-05-07 21:08 0.05825 -171.51394 36914 ft 474 kts 30°
2026-05-07 21:09 0.11445 -171.47941 36917 ft 474 kts 31°
2026-05-07 21:09 0.17070 -171.44483 36917 ft 475 kts 31°
2026-05-07 21:10 0.22694 -171.41026 36917 ft 475 kts 30°
2026-05-07 21:10 0.28350 -171.37550 36918 ft 475 kts 30°
2026-05-07 21:11 0.33944 -171.34111 36918 ft 475 kts 30°
2026-05-07 21:11 0.42390 -171.28920 36916 ft 475 kts 30°
2026-05-07 21:12 0.48020 -171.25460 36919 ft 475 kts 31°
2026-05-07 21:12 0.53655 -171.21997 36919 ft 476 kts 31°
2026-05-07 21:13 0.59295 -171.18530 36918 ft 476 kts 31°
2026-05-07 21:13 0.64934 -171.15063 36919 ft 476 kts 31°
2026-05-07 21:14 0.70574 -171.11596 36916 ft 476 kts 31°
2026-05-07 21:14 0.76215 -171.08127 36918 ft 476 kts 31°
2026-05-07 21:15 0.81855 -171.04661 36917 ft 476 kts 31°
2026-05-07 21:15 0.87489 -171.01197 36917 ft 475 kts 31°
2026-05-07 21:16 0.93120 -170.97734 36914 ft 476 kts 31°
2026-05-07 21:16 0.98757 -170.94268 36915 ft 476 kts 31°
2026-05-07 21:17 1.04397 -170.90801 36915 ft 476 kts 32°
2026-05-07 21:17 1.10001 -170.87356 36915 ft 477 kts 32°
2026-05-07 21:18 1.15653 -170.83880 36922 ft 477 kts 32°
2026-05-07 21:18 1.21314 -170.80398 36920 ft 478 kts 32°
2026-05-07 21:19 1.26978 -170.76915 36916 ft 478 kts 32°
2026-05-07 21:19 1.32648 -170.73427 36914 ft 478 kts 32°
2026-05-07 21:20 1.38309 -170.69946 36917 ft 478 kts 32°
2026-05-07 21:20 1.43971 -170.66464 36917 ft 478 kts 32°
2026-05-07 21:21 1.49633 -170.62982 36914 ft 478 kts 32°
2026-05-07 21:21 1.55289 -170.59504 36916 ft 477 kts 32°
2026-05-07 21:22 1.60938 -170.56027 36914 ft 477 kts 32°
2026-05-07 21:22 1.66582 -170.52554 36909 ft 476 kts 33°
2026-05-07 21:23 1.72224 -170.49083 36916 ft 476 kts 32°
2026-05-07 21:23 1.77873 -170.45607 36917 ft 477 kts 33°
2026-05-07 21:24 1.83522 -170.42131 36916 ft 477 kts 32°
2026-05-07 21:24 1.89174 -170.38652 36917 ft 477 kts 32°
2026-05-07 21:25 1.94828 -170.35173 36911 ft 477 kts 32°
2026-05-07 21:25 2.00455 -170.31709 36929 ft 479 kts 32°
2026-05-07 21:26 2.03303 -170.29956 37146 ft 481 kts 32°
2026-05-07 21:26 2.06151 -170.28203 37555 ft 480 kts 33°
2026-05-07 21:26 2.08987 -170.26457 38008 ft 477 kts 33°
2026-05-07 21:26 2.11803 -170.24724 38459 ft 474 kts 33°
2026-05-07 21:27 2.14608 -170.22997 38824 ft 473 kts 33°
2026-05-07 21:27 2.17415 -170.21269 38920 ft 477 kts 33°
2026-05-07 21:27 2.23124 -170.17752 38917 ft 486 kts 33°
2026-05-07 21:28 2.28814 -170.14250 38908 ft 476 kts 33°
2026-05-07 21:28 2.34427 -170.10794 38908 ft 471 kts 32°
2026-05-07 21:29 2.40058 -170.07324 38929 ft 481 kts 33°
2026-05-07 21:29 2.45783 -170.03797 38925 ft 486 kts 33°
2026-05-07 21:30 2.51568 -170.00233 38923 ft 491 kts 33°
2026-05-07 21:30 2.57406 -169.96635 38926 ft 494 kts 33°
2026-05-07 21:31 2.63266 -169.93025 38919 ft 495 kts 33°
2026-05-07 21:31 2.69094 -169.89452 38905 ft 487 kts 32°
2026-05-07 21:32 2.74848 -169.85935 38917 ft 484 kts 32°
2026-05-07 21:32 2.80579 -169.82427 38921 ft 483 kts 33°
2026-05-07 21:33 2.86271 -169.78940 38921 ft 483 kts 33°
2026-05-07 21:33 2.92014 -169.75421 38923 ft 485 kts 33°
2026-05-07 21:34 2.97782 -169.71885 38928 ft 487 kts 33°
2026-05-07 21:34 3.03571 -169.68338 38925 ft 488 kts 32°
2026-05-07 21:35 3.09374 -169.64782 38924 ft 490 kts 32°
2026-05-07 21:35 3.15186 -169.61219 38923 ft 490 kts 32°
2026-05-07 21:36 3.21024 -169.57640 38926 ft 490 kts 33°
2026-05-07 21:36 3.26838 -169.54075 38925 ft 490 kts 33°
2026-05-07 21:37 3.32614 -169.50533 38925 ft 490 kts 32°
2026-05-07 21:37 3.38421 -169.46971 38925 ft 489 kts 32°
2026-05-07 21:38 3.44221 -169.43413 38925 ft 489 kts 32°
2026-05-07 21:38 3.50019 -169.39856 38925 ft 489 kts 32°
2026-05-07 21:39 3.55815 -169.36300 38927 ft 489 kts 32°
2026-05-07 21:39 3.61619 -169.32738 38926 ft 489 kts 32°
2026-05-07 21:40 3.67423 -169.29175 38927 ft 489 kts 32°
2026-05-07 21:40 3.73227 -169.25612 38926 ft 490 kts 33°
2026-05-07 21:41 3.79039 -169.22044 38930 ft 490 kts 32°
2026-05-07 21:41 3.84844 -169.18479 38924 ft 489 kts 32°
2026-05-07 21:42 3.90603 -169.14942 38925 ft 489 kts 32°
2026-05-07 21:42 3.96395 -169.11384 38926 ft 488 kts 32°
2026-05-07 21:43 4.02181 -169.07830 38927 ft 488 kts 32°
2026-05-07 21:43 4.07966 -169.04275 38923 ft 488 kts 32°
2026-05-07 21:44 4.13749 -169.00720 38926 ft 488 kts 32°
2026-05-07 21:44 4.18561 -168.97763 38926 ft 488 kts 32°
2026-05-07 21:45 4.24351 -168.94203 38934 ft 489 kts 32°
2026-05-07 21:45 4.30148 -168.90638 38933 ft 489 kts 32°
2026-05-07 21:46 4.35951 -168.87070 38931 ft 489 kts 32°
2026-05-07 21:46 4.41748 -168.83504 38931 ft 489 kts 32°
2026-05-07 21:47 4.47554 -168.79932 38929 ft 489 kts 32°
2026-05-07 21:47 4.53351 -168.76363 38934 ft 489 kts 32°
2026-05-07 21:48 4.59138 -168.72802 38930 ft 488 kts 32°
2026-05-07 21:48 4.64913 -168.69248 38929 ft 487 kts 32°
2026-05-07 21:49 4.70673 -168.65701 38930 ft 486 kts 32°
2026-05-07 21:49 4.76434 -168.62154 38933 ft 486 kts 32°
2026-05-07 21:50 4.82197 -168.58603 38933 ft 486 kts 32°
2026-05-07 21:50 4.87969 -168.55048 38933 ft 487 kts 32°
2026-05-07 21:51 4.93744 -168.51489 38933 ft 487 kts 32°
2026-05-07 21:51 4.99515 -168.47932 38935 ft 487 kts 32°
2026-05-07 21:52 5.05291 -168.44371 38934 ft 487 kts 32°
2026-05-07 21:52 5.11067 -168.40810 38936 ft 487 kts 32°
2026-05-07 21:53 5.16837 -168.37251 38936 ft 487 kts 32°
2026-05-07 21:53 5.22607 -168.33692 38943 ft 487 kts 32°
2026-05-07 21:54 5.28375 -168.30134 38936 ft 487 kts 32°
2026-05-07 21:54 5.34147 -168.26572 38937 ft 487 kts 32°
2026-05-07 21:55 5.39914 -168.23012 38937 ft 487 kts 32°
2026-05-07 21:55 5.45690 -168.19446 38937 ft 487 kts 32°
2026-05-07 21:56 5.51466 -168.15879 38937 ft 487 kts 32°
2026-05-07 21:56 5.57237 -168.12314 38939 ft 488 kts 32°
2026-05-07 21:57 5.63018 -168.08743 38939 ft 488 kts 32°
2026-05-07 21:57 5.68761 -168.05193 38941 ft 488 kts 32°
2026-05-07 21:58 5.74530 -168.01627 38939 ft 489 kts 32°
2026-05-07 21:58 5.80335 -167.98038 38940 ft 489 kts 32°
2026-05-07 21:59 5.86132 -167.94453 38938 ft 489 kts 32°
2026-05-07 21:59 5.91921 -167.90872 38936 ft 489 kts 32°
2026-05-07 22:00 5.97710 -167.87290 38942 ft 489 kts 31°
2026-05-07 22:00 6.03497 -167.83708 38942 ft 488 kts 31°
2026-05-07 22:01 6.09286 -167.80125 38940 ft 488 kts 31°
2026-05-07 22:01 6.15069 -167.76545 38939 ft 488 kts 31°
2026-05-07 22:02 6.20855 -167.72961 38937 ft 488 kts 31°
2026-05-07 22:02 6.26642 -167.69376 38940 ft 489 kts 32°
2026-05-07 22:03 6.32428 -167.65790 38940 ft 489 kts 32°
2026-05-07 22:03 6.38215 -167.62203 38943 ft 489 kts 32°
2026-05-07 22:04 6.43980 -167.58629 38941 ft 489 kts 32°
2026-05-07 22:04 6.49760 -167.55044 38943 ft 488 kts 32°
2026-05-07 22:05 6.55540 -167.51458 38946 ft 488 kts 32°
2026-05-07 22:05 6.61318 -167.47873 38948 ft 488 kts 32°
2026-05-07 22:06 6.67088 -167.44291 38945 ft 487 kts 32°
2026-05-07 22:06 6.72859 -167.40708 38944 ft 487 kts 32°
2026-05-07 22:07 6.78626 -167.37126 38950 ft 487 kts 32°
2026-05-07 22:07 6.84396 -167.33542 38945 ft 487 kts 32°
2026-05-07 22:08 6.90167 -167.29956 38945 ft 488 kts 32°
2026-05-07 22:08 6.95938 -167.26368 38943 ft 488 kts 32°
2026-05-07 22:09 7.01715 -167.22777 38943 ft 488 kts 32°
2026-05-07 22:09 7.07487 -167.19186 38941 ft 488 kts 31°
2026-05-07 22:10 7.13254 -167.15599 38952 ft 487 kts 31°
2026-05-07 22:10 7.19015 -167.12014 38953 ft 487 kts 31°
2026-05-07 22:11 7.24773 -167.08429 38947 ft 487 kts 31°
2026-05-07 22:11 7.30532 -167.04843 38950 ft 486 kts 31°
2026-05-07 22:12 7.36291 -167.01255 38950 ft 487 kts 31°
2026-05-07 22:12 7.42013 -166.97690 38942 ft 487 kts 31°
2026-05-07 22:13 7.47819 -166.94072 38951 ft 488 kts 31°
2026-05-07 22:13 7.53553 -166.90496 38947 ft 488 kts 31°
2026-05-07 22:14 7.59335 -166.86891 38945 ft 489 kts 31°
2026-05-07 22:14 7.65118 -166.83282 38946 ft 489 kts 32°
2026-05-07 22:15 7.70894 -166.79678 38953 ft 489 kts 32°
2026-05-07 22:15 7.76681 -166.76065 38949 ft 489 kts 32°
2026-05-07 22:16 7.82461 -166.72456 38950 ft 489 kts 32°
2026-05-07 22:16 7.88241 -166.68845 38951 ft 489 kts 32°
2026-05-07 22:17 7.94023 -166.65232 38950 ft 489 kts 32°
2026-05-07 22:17 7.99803 -166.61619 38956 ft 488 kts 32°
2026-05-07 22:18 8.08471 -166.56198 38952 ft 488 kts 32°
2026-05-07 22:19 8.14246 -166.52585 38951 ft 488 kts 32°
2026-05-07 22:19 8.20025 -166.48969 38945 ft 490 kts 32°
2026-05-07 22:20 8.25821 -166.45338 38958 ft 491 kts 32°
2026-05-07 22:20 8.31631 -166.41699 38952 ft 492 kts 32°
2026-05-07 22:21 8.37455 -166.38052 38955 ft 493 kts 32°
2026-05-07 22:21 8.43283 -166.34401 38957 ft 493 kts 32°
2026-05-07 22:22 8.49108 -166.30749 38953 ft 493 kts 32°
2026-05-07 22:22 8.54928 -166.27098 38959 ft 493 kts 32°
2026-05-07 22:23 8.60754 -166.23442 38954 ft 493 kts 32°
2026-05-07 22:23 8.66583 -166.19783 38952 ft 493 kts 33°
2026-05-07 22:24 8.72413 -166.16122 38955 ft 493 kts 32°
2026-05-07 22:24 8.78207 -166.12483 38947 ft 494 kts 32°
2026-05-07 22:25 8.84045 -166.08814 38948 ft 495 kts 32°
2026-05-07 22:25 8.89918 -166.05120 38960 ft 498 kts 32°
2026-05-07 22:26 8.95817 -166.01409 38963 ft 501 kts 32°
2026-05-07 22:26 9.01752 -165.97676 38964 ft 503 kts 32°
2026-05-07 22:27 9.07706 -165.93930 38958 ft 505 kts 32°
2026-05-07 22:27 9.13668 -165.90177 38957 ft 505 kts 32°
2026-05-07 22:28 9.19644 -165.86412 38960 ft 506 kts 32°
2026-05-07 22:28 9.25617 -165.82649 38956 ft 506 kts 31°
2026-05-07 22:29 9.31592 -165.78883 38953 ft 506 kts 32°
2026-05-07 22:29 9.37563 -165.75118 38955 ft 506 kts 32°
2026-05-07 22:30 9.43537 -165.71350 38962 ft 506 kts 32°
2026-05-07 22:30 9.49510 -165.67580 38963 ft 506 kts 32°
2026-05-07 22:31 9.54473 -165.64447 38967 ft 505 kts 32°
2026-05-07 22:31 9.60430 -165.60685 38954 ft 504 kts 32°
2026-05-07 22:32 9.66367 -165.56934 38954 ft 502 kts 32°
2026-05-07 22:32 9.72293 -165.53188 38962 ft 501 kts 32°
2026-05-07 22:33 9.78202 -165.49451 38957 ft 500 kts 32°
2026-05-07 22:33 9.84105 -165.45717 38963 ft 500 kts 32°
2026-05-07 22:34 9.90005 -165.41982 38959 ft 501 kts 32°
2026-05-07 22:34 9.95964 -165.38208 38970 ft 509 kts 31°
2026-05-07 22:35 10.02023 -165.34371 38971 ft 516 kts 32°
2026-05-07 22:35 10.08108 -165.30514 38961 ft 515 kts 31°
2026-05-07 22:36 10.14154 -165.26680 38951 ft 509 kts 32°
2026-05-07 22:36 10.20130 -165.22888 38956 ft 505 kts 32°
2026-05-07 22:37 10.26107 -165.19095 38963 ft 509 kts 31°
2026-05-07 22:37 10.32177 -165.15331 38973 ft 514 kts 30°
2026-05-07 22:38 10.38337 -165.11591 38969 ft 518 kts 30°
2026-05-07 22:38 10.44517 -165.07833 38965 ft 516 kts 30°
2026-05-07 22:39 10.50602 -165.04114 38959 ft 512 kts 30°
2026-05-07 22:39 10.56692 -165.00384 38972 ft 511 kts 30°
2026-05-07 22:40 10.62800 -164.96639 38973 ft 514 kts 30°
2026-05-07 22:40 10.68941 -164.92877 38982 ft 519 kts 30°
2026-05-07 22:41 10.75162 -164.89060 38979 ft 524 kts 30°
2026-05-07 22:41 10.81380 -164.85243 38975 ft 518 kts 30°
2026-05-07 22:42 10.87504 -164.81484 38960 ft 511 kts 30°
2026-05-07 22:42 10.93575 -164.77757 38978 ft 510 kts 30°
2026-05-07 22:43 10.99688 -164.74001 38983 ft 517 kts 29°
2026-05-07 22:43 11.05882 -164.70194 38982 ft 523 kts 30°
2026-05-07 22:44 11.12122 -164.66354 38971 ft 523 kts 30°
2026-05-07 22:44 11.18314 -164.62542 38964 ft 516 kts 30°
2026-05-07 22:45 11.24435 -164.58772 38967 ft 513 kts 29°
2026-05-07 22:45 11.30542 -164.55012 38977 ft 513 kts 30°
2026-05-07 22:46 11.36659 -164.51242 38976 ft 514 kts 30°
2026-05-07 22:46 11.42792 -164.47460 38979 ft 516 kts 29°
2026-05-07 22:47 11.48948 -164.43662 38978 ft 518 kts 30°
2026-05-07 22:47 11.55121 -164.39851 38979 ft 519 kts 29°
2026-05-07 22:48 11.61300 -164.36035 38989 ft 520 kts 29°
2026-05-07 22:48 11.67487 -164.32211 38987 ft 520 kts 29°
2026-05-07 22:49 11.73619 -164.28421 38976 ft 519 kts 29°
2026-05-07 22:49 11.79801 -164.24597 38980 ft 519 kts 29°
2026-05-07 22:50 11.85966 -164.20781 38983 ft 518 kts 29°
2026-05-07 22:50 11.92133 -164.16962 38982 ft 518 kts 29°
2026-05-07 22:51 11.98284 -164.13151 38994 ft 518 kts 28°
2026-05-07 22:51 12.04450 -164.09328 38988 ft 518 kts 28°
2026-05-07 22:52 12.10601 -164.05513 38984 ft 518 kts 28°
2026-05-07 22:52 12.16758 -164.01693 38991 ft 517 kts 28°
2026-05-07 22:53 12.22908 -163.97874 38995 ft 517 kts 28°
2026-05-07 22:53 12.29060 -163.94052 38999 ft 517 kts 28°
2026-05-07 22:54 12.35207 -163.90230 38998 ft 517 kts 28°
2026-05-07 22:54 12.41350 -163.86410 38990 ft 517 kts 28°
2026-05-07 22:55 12.47487 -163.82591 38991 ft 516 kts 28°
2026-05-07 22:55 12.53624 -163.78770 38993 ft 516 kts 28°
2026-05-07 22:56 12.59759 -163.74947 38992 ft 516 kts 28°
2026-05-07 22:56 12.65852 -163.71149 38993 ft 516 kts 27°
2026-05-07 22:57 12.71983 -163.67326 39003 ft 516 kts 27°
2026-05-07 22:57 12.78105 -163.63505 39002 ft 515 kts 27°
2026-05-07 22:58 12.84221 -163.59686 38996 ft 515 kts 27°
2026-05-07 22:58 12.90332 -163.55868 38997 ft 515 kts 27°
2026-05-07 22:59 12.96455 -163.52040 39009 ft 515 kts 27°
2026-05-07 22:59 13.02574 -163.48213 38999 ft 516 kts 27°
2026-05-07 23:00 13.08719 -163.44367 39006 ft 517 kts 27°
2026-05-07 23:00 13.14872 -163.40514 39010 ft 519 kts 27°
2026-05-07 23:01 13.21038 -163.36651 39012 ft 519 kts 27°
2026-05-07 23:01 13.27209 -163.32781 39008 ft 520 kts 27°
2026-05-07 23:02 13.33386 -163.28905 39006 ft 521 kts 27°
2026-05-07 23:02 13.39586 -163.25014 39010 ft 522 kts 27°
2026-05-07 23:03 13.45784 -163.21120 39010 ft 523 kts 27°
2026-05-07 23:03 13.52002 -163.17212 39017 ft 524 kts 27°
2026-05-07 23:04 13.58221 -163.13301 39017 ft 524 kts 27°
2026-05-07 23:04 13.64445 -163.09383 39023 ft 524 kts 26°
2026-05-07 23:05 13.70614 -163.05498 39021 ft 523 kts 26°
2026-05-07 23:05 13.76860 -163.01562 39017 ft 522 kts 26°
2026-05-07 23:06 13.83010 -162.97685 39017 ft 521 kts 26°
2026-05-07 23:06 13.89184 -162.93789 39025 ft 520 kts 26°
2026-05-07 23:07 13.95352 -162.89896 39014 ft 519 kts 26°
2026-05-07 23:07 14.01506 -162.86008 39018 ft 519 kts 26°
2026-05-07 23:08 14.07658 -162.82120 39023 ft 518 kts 26°
2026-05-07 23:08 14.13801 -162.78235 39024 ft 518 kts 26°
2026-05-07 23:09 14.19943 -162.74348 39026 ft 518 kts 26°
2026-05-07 23:09 14.26084 -162.70459 39026 ft 518 kts 26°
2026-05-07 23:10 14.32230 -162.66564 39036 ft 519 kts 26°
2026-05-07 23:10 14.38390 -162.62658 39031 ft 520 kts 26°
2026-05-07 23:11 14.44554 -162.58747 39028 ft 520 kts 26°
2026-05-07 23:11 14.50709 -162.54838 39028 ft 520 kts 26°
2026-05-07 23:12 14.56879 -162.50918 39028 ft 521 kts 26°
2026-05-07 23:12 14.63053 -162.46992 39031 ft 521 kts 26°
2026-05-07 23:13 14.69220 -162.43068 39031 ft 521 kts 26°
2026-05-07 23:13 14.75387 -162.39141 39029 ft 521 kts 26°
2026-05-07 23:14 14.81551 -162.35214 39035 ft 521 kts 26°
2026-05-07 23:14 14.87713 -162.31286 39039 ft 520 kts 26°
2026-05-07 23:15 14.93876 -162.27354 39051 ft 520 kts 26°
2026-05-07 23:15 15.00039 -162.23420 39041 ft 521 kts 26°
2026-05-07 23:16 15.06206 -162.19481 39037 ft 521 kts 26°
2026-05-07 23:16 15.12367 -162.15542 39037 ft 521 kts 26°
2026-05-07 23:17 15.18531 -162.11598 39037 ft 521 kts 26°
2026-05-07 23:17 15.24687 -162.07658 39041 ft 521 kts 26°
2026-05-07 23:18 15.30814 -162.03733 39051 ft 521 kts 26°
2026-05-07 23:18 15.36993 -161.99772 39044 ft 522 kts 26°
2026-05-07 23:19 15.43166 -161.95812 39048 ft 522 kts 26°
2026-05-07 23:19 15.48336 -161.92493 39045 ft 522 kts 26°
2026-05-07 23:20 15.54517 -161.88522 39042 ft 522 kts 26°
2026-05-07 23:20 15.60686 -161.84556 39060 ft 522 kts 25°
2026-05-07 23:21 15.66864 -161.80583 39046 ft 523 kts 26°
2026-05-07 23:21 15.73043 -161.76605 39055 ft 523 kts 26°
2026-05-07 23:22 15.79232 -161.72619 39047 ft 523 kts 26°
2026-05-07 23:22 15.85415 -161.68633 39053 ft 523 kts 26°
2026-05-07 23:23 15.91602 -161.64641 39061 ft 524 kts 25°
2026-05-07 23:23 15.97789 -161.60646 39051 ft 524 kts 25°
2026-05-07 23:24 16.03943 -161.56671 39052 ft 524 kts 25°
2026-05-07 23:24 16.10134 -161.52668 39055 ft 524 kts 26°
2026-05-07 23:25 16.16321 -161.48664 39051 ft 524 kts 26°
2026-05-07 23:25 16.22512 -161.44655 39072 ft 524 kts 26°
2026-05-07 23:26 16.28701 -161.40645 39061 ft 524 kts 26°
2026-05-07 23:26 16.34888 -161.36632 39059 ft 524 kts 26°
2026-05-07 23:27 16.44166 -161.30610 39057 ft 524 kts 26°
2026-05-07 23:27 16.50344 -161.26595 39060 ft 524 kts 26°
2026-05-07 23:28 16.56525 -161.22576 39069 ft 524 kts 26°
2026-05-07 23:28 16.62712 -161.18551 39059 ft 524 kts 26°
2026-05-07 23:29 16.68893 -161.14525 39063 ft 524 kts 26°
2026-05-07 23:29 16.75080 -161.10493 39062 ft 524 kts 26°
2026-05-07 23:30 16.81263 -161.06460 39067 ft 524 kts 26°
2026-05-07 23:30 16.87448 -161.02423 39074 ft 525 kts 25°
2026-05-07 23:31 16.93638 -160.98380 39068 ft 525 kts 26°
2026-05-07 23:31 16.99833 -160.94329 39066 ft 526 kts 26°
2026-05-07 23:32 17.06035 -160.90271 39063 ft 526 kts 26°
2026-05-07 23:32 17.12194 -160.86238 39065 ft 526 kts 26°
2026-05-07 23:33 17.18395 -160.82174 39074 ft 526 kts 25°
2026-05-07 23:33 17.24602 -160.78104 39066 ft 527 kts 25°
2026-05-07 23:34 17.30810 -160.74029 39064 ft 527 kts 25°
2026-05-07 23:34 17.37012 -160.69954 39071 ft 527 kts 25°
2026-05-07 23:35 17.43224 -160.65870 39069 ft 527 kts 26°
2026-05-07 23:35 17.49432 -160.61785 39080 ft 527 kts 25°
2026-05-07 23:36 17.55653 -160.57689 39066 ft 528 kts 25°
2026-05-07 23:36 17.61870 -160.53591 39073 ft 528 kts 25°
2026-05-07 23:37 17.68093 -160.49486 39068 ft 528 kts 25°
2026-05-07 23:37 17.74309 -160.45382 39067 ft 528 kts 25°
2026-05-07 23:38 17.80523 -160.41276 39072 ft 528 kts 25°
2026-05-07 23:38 17.86735 -160.37168 39072 ft 528 kts 25°
2026-05-07 23:39 17.92943 -160.33059 39072 ft 528 kts 25°
2026-05-07 23:39 17.99154 -160.28943 39069 ft 528 kts 25°
2026-05-07 23:40 18.05362 -160.24827 39065 ft 528 kts 25°
2026-05-07 23:40 18.11560 -160.20694 39079 ft 528 kts 25°
2026-05-07 23:41 18.17762 -160.16543 39072 ft 528 kts 25°
2026-05-07 23:41 18.23920 -160.12419 39070 ft 528 kts 25°
2026-05-07 23:42 18.30117 -160.08267 39071 ft 528 kts 25°
2026-05-07 23:42 18.36311 -160.04115 39072 ft 528 kts 25°
2026-05-07 23:43 18.42507 -159.99959 39082 ft 528 kts 25°
2026-05-07 23:43 18.48708 -159.95795 39080 ft 529 kts 25°
2026-05-07 23:44 18.54909 -159.91627 39073 ft 529 kts 25°
2026-05-07 23:44 18.61116 -159.87451 39074 ft 529 kts 25°
2026-05-07 23:45 18.67515 -159.83881 39105 ft 515 kts 15°
2026-05-07 23:45 18.74046 -159.80665 39077 ft 522 kts 20°
2026-05-07 23:46 18.80334 -159.76745 39087 ft 528 kts 25°
2026-05-07 23:46 18.86503 -159.72493 39079 ft 530 kts 26°
2026-05-07 23:47 18.92679 -159.68247 39078 ft 529 kts 25°
2026-05-07 23:47 18.98878 -159.64052 39099 ft 529 kts 25°
2026-05-07 23:48 19.05086 -159.59859 39088 ft 529 kts 25°
2026-05-07 23:48 19.11220 -159.55644 39080 ft 530 kts 26°
2026-05-07 23:49 19.17330 -159.51277 39086 ft 530 kts 27°
2026-05-07 23:49 19.23424 -159.46894 39083 ft 529 kts 26°
2026-05-07 23:50 19.29516 -159.42532 39099 ft 528 kts 26°
2026-05-07 23:50 19.32533 -159.40373 39079 ft 516 kts 26°
2026-05-07 23:50 19.35459 -159.38272 39070 ft 500 kts 26°
2026-05-07 23:51 19.38298 -159.36233 38877 ft 489 kts 26°
2026-05-07 23:51 19.41101 -159.34230 38420 ft 484 kts 26°
2026-05-07 23:51 19.43879 -159.32249 37979 ft 479 kts 26°
2026-05-07 23:51 19.46630 -159.30288 37548 ft 474 kts 26°
2026-05-07 23:52 19.49348 -159.28348 37127 ft 469 kts 26°
2026-05-07 23:52 19.52043 -159.26422 36708 ft 465 kts 26°
2026-05-07 23:52 19.54715 -159.24511 36294 ft 461 kts 26°
2026-05-07 23:52 19.57362 -159.22616 35905 ft 457 kts 27°
2026-05-07 23:53 19.59989 -159.20735 35470 ft 454 kts 27°
2026-05-07 23:53 19.62600 -159.18865 35035 ft 452 kts 27°
2026-05-07 23:53 19.65201 -159.17001 34589 ft 450 kts 27°
2026-05-07 23:53 19.67786 -159.15147 34152 ft 448 kts 28°
2026-05-07 23:54 19.70366 -159.13297 33658 ft 446 kts 28°
2026-05-07 23:54 19.72925 -159.11459 33208 ft 443 kts 29°
2026-05-07 23:54 19.75466 -159.09634 32774 ft 440 kts 29°
2026-05-07 23:54 19.77990 -159.07819 32337 ft 436 kts 30°
2026-05-07 23:55 19.80465 -159.06040 31878 ft 435 kts 30°
2026-05-07 23:55 19.82991 -159.04227 30963 ft 444 kts 31°
2026-05-07 23:55 19.85563 -159.02381 30385 ft 446 kts 32°
2026-05-07 23:55 19.88108 -159.00549 30155 ft 437 kts 32°
2026-05-07 23:56 19.90589 -158.98759 29937 ft 426 kts 32°
2026-05-07 23:56 19.93016 -158.97006 29693 ft 418 kts 32°
2026-05-07 23:56 19.95406 -158.95282 29255 ft 414 kts 32°
2026-05-07 23:56 19.97781 -158.93570 28820 ft 410 kts 32°
2026-05-07 23:57 20.00133 -158.91874 28399 ft 407 kts 32°
2026-05-07 23:57 20.02470 -158.90189 27983 ft 404 kts 32°
2026-05-07 23:57 20.04787 -158.88517 27567 ft 402 kts 32°
2026-05-07 23:57 20.07097 -158.86850 27154 ft 401 kts 32°
2026-05-07 23:58 20.09400 -158.85187 26734 ft 399 kts 32°
2026-05-07 23:58 20.11686 -158.83535 26324 ft 396 kts 32°
2026-05-07 23:58 20.13959 -158.81893 25926 ft 394 kts 32°
2026-05-07 23:58 20.16219 -158.80258 25511 ft 392 kts 32°
2026-05-07 23:59 20.18468 -158.78633 25098 ft 390 kts 32°
2026-05-07 23:59 20.20712 -158.77010 24682 ft 389 kts 32°
2026-05-07 23:59 20.22944 -158.75395 24280 ft 387 kts 32°
2026-05-07 23:59 20.25168 -158.73785 23869 ft 386 kts 33°
2026-05-08 00:00 20.27392 -158.72175 23417 ft 388 kts 33°
2026-05-08 00:00 20.29629 -158.70553 22987 ft 388 kts 33°
2026-05-08 00:00 20.31858 -158.68937 22546 ft 386 kts 33°
2026-05-08 00:00 20.34067 -158.67333 22120 ft 383 kts 33°
2026-05-08 00:01 20.36260 -158.65743 21716 ft 380 kts 33°
2026-05-08 00:01 20.38440 -158.64163 21311 ft 378 kts 33°
2026-05-08 00:01 20.40615 -158.62585 20912 ft 379 kts 33°
2026-05-08 00:01 20.42795 -158.61003 20506 ft 380 kts 33°
2026-05-08 00:02 20.44989 -158.59409 20091 ft 382 kts 34°
2026-05-08 00:02 20.47187 -158.57811 19671 ft 384 kts 34°
2026-05-08 00:02 20.49393 -158.56208 19236 ft 378 kts 34°
2026-05-08 00:02 20.51515 -158.54665 18819 ft 361 kts 34°
2026-05-08 00:03 20.53528 -158.53200 18426 ft 339 kts 34°
2026-05-08 00:03 20.55419 -158.51824 18011 ft 319 kts 34°
2026-05-08 00:03 20.57228 -158.50508 17677 ft 313 kts 34°
2026-05-08 00:03 20.59036 -158.49192 17232 ft 318 kts 34°
2026-05-08 00:04 20.60875 -158.47853 16890 ft 323 kts 34°
2026-05-08 00:04 20.62752 -158.46486 16515 ft 331 kts 34°
2026-05-08 00:04 20.64670 -158.45088 16143 ft 335 kts 34°
2026-05-08 00:04 20.66599 -158.43682 15754 ft 336 kts 34°
2026-05-08 00:05 20.68524 -158.42279 15380 ft 335 kts 34°
2026-05-08 00:05 20.70444 -158.40879 15002 ft 334 kts 34°
2026-05-08 00:05 20.72357 -158.39482 14639 ft 333 kts 34°
2026-05-08 00:05 20.74269 -158.38087 14265 ft 333 kts 34°
2026-05-08 00:06 20.76179 -158.36692 13883 ft 333 kts 34°
2026-05-08 00:06 20.78088 -158.35298 13467 ft 332 kts 34°
2026-05-08 00:06 20.79992 -158.33906 13084 ft 331 kts 34°
2026-05-08 00:06 20.81249 -158.32988 12843 ft 330 kts 34°
2026-05-08 00:07 20.83142 -158.31605 12467 ft 329 kts 34°
2026-05-08 00:07 20.85655 -158.29767 11970 ft 327 kts 34°
2026-05-08 00:07 20.86895 -158.28860 11737 ft 326 kts 34°
2026-05-08 00:07 20.88762 -158.27494 11368 ft 325 kts 34°
2026-05-08 00:08 20.91225 -158.25692 10893 ft 323 kts 34°
2026-05-08 00:08 20.92492 -158.24822 10636 ft 316 kts 26°
2026-05-08 00:08 20.95278 -158.24207 10212 ft 309 kts 354°
2026-05-08 00:08 20.96686 -158.24463 10127 ft 300 kts 345°
2026-05-08 00:09 20.98682 -158.25025 9904 ft 295 kts 343°
2026-05-08 00:09 21.00657 -158.25610 9541 ft 295 kts 343°
2026-05-08 00:09 21.02630 -158.26194 9199 ft 293 kts 343°
2026-05-08 00:09 21.04594 -158.26770 8854 ft 292 kts 343°
2026-05-08 00:10 21.06547 -158.27338 8512 ft 288 kts 343°
2026-05-08 00:10 21.08412 -158.27876 8166 ft 268 kts 343°
2026-05-08 00:10 21.10134 -158.28370 7887 ft 253 kts 343°
2026-05-08 00:10 21.11837 -158.28860 7598 ft 248 kts 343°
2026-05-08 00:11 21.13537 -158.29348 7355 ft 261 kts 344°
2026-05-08 00:11 21.15316 -158.29859 7067 ft 273 kts 344°
2026-05-08 00:11 21.17162 -158.30387 6739 ft 276 kts 345°
2026-05-08 00:11 21.19022 -158.30649 6373 ft 269 kts
2026-05-08 00:12 21.20762 -158.29979 6097 ft 263 kts 31°
2026-05-08 00:12 21.22296 -158.28925 5814 ft 261 kts 32°
2026-05-08 00:12 21.23829 -158.27876 5533 ft 261 kts 32°
2026-05-08 00:12 21.25358 -158.26832 5228 ft 260 kts 32°
2026-05-08 00:13 21.26884 -158.25793 4958 ft 259 kts 32°
2026-05-08 00:13 21.28409 -158.24757 4751 ft 258 kts 32°
2026-05-08 00:13 21.29905 -158.23743 4578 ft 251 kts 32°
2026-05-08 00:13 21.31327 -158.22736 4447 ft 236 kts 40°
2026-05-08 00:14 21.32247 -158.21346 4287 ft 229 kts 69°
2026-05-08 00:14 21.32547 -158.19679 4067 ft 230 kts 86°
2026-05-08 00:14 21.32560 -158.17960 3820 ft 231 kts 88°
2026-05-08 00:14 21.32542 -158.16246 3656 ft 228 kts 89°
2026-05-08 00:15 21.32531 -158.14589 3512 ft 215 kts 89°
2026-05-08 00:15 21.32524 -158.13039 3329 ft 203 kts 87°
2026-05-08 00:15 21.32521 -158.11562 3132 ft 193 kts 87°
2026-05-08 00:15 21.32519 -158.10143 2867 ft 187 kts 86°
2026-05-08 00:16 21.32518 -158.08770 2631 ft 181 kts 87°
2026-05-08 00:16 21.32518 -158.07450 2396 ft 173 kts 86°
2026-05-08 00:16 21.32516 -158.06185 2202 ft 171 kts 85°
2026-05-08 00:16 21.32518 -158.04922 1963 ft 165 kts 84°
2026-05-08 00:17 21.32519 -158.03700 1745 ft 163 kts 84°
2026-05-08 00:17 21.32521 -158.02489 1545 ft 165 kts 86°
2026-05-08 00:17 21.32523 -158.01242 1330 ft 166 kts 85°
2026-05-08 00:17 21.32523 -158.00065 1100 ft 148 kts 86°
2026-05-08 00:18 21.32524 -157.98978 885 ft 144 kts 88°
2026-05-08 00:18 21.32525 -157.97899 682 ft 146 kts 89°
2026-05-08 00:18 21.32536 -157.96815 486 ft 145 kts 90°
2026-05-08 00:18 21.32536 -157.95722 318 ft 148 kts 91°
2026-05-08 00:19 21.32527 -157.94641 113 ft 145 kts 90°
2026-05-08 00:19 21.32522 -157.93593 21 ft 132 kts 90°
2026-05-08 00:19 21.32526 -157.92722 17 ft 94 kts 90°
2026-05-08 00:19 21.32525 -157.92194 20 ft 50 kts 90°
2026-05-08 00:20 21.32542 -157.91985 20 ft 16 kts 50°
2026-05-08 00:20 21.32615 -157.91936 19 ft 8 kts 25°
2026-05-08 00:20 21.32667 -157.91911 18 ft 9 kts 22°
2026-05-08 00:20 21.32727 -157.91878 16 ft 9 kts 27°
2026-05-08 00:21 21.32767 -157.91862 16 ft 1 kts 11°
2026-05-08 00:21 21.32784 -157.91859 16 ft 4 kts
2026-05-08 00:21 21.32810 -157.91855 16 ft 6 kts
2026-05-08 00:21 21.32866 -157.91846 17 ft 8 kts
2026-05-08 00:22 21.32912 -157.91837 18 ft 6 kts
2026-05-08 00:22 21.32936 -157.91833 18 ft 1 kts 10°
2026-05-08 00:22 21.32942 -157.91832 18 ft 1 kts 10°
2026-05-08 00:22 21.32950 -157.91830 18 ft 1 kts 10°
2026-05-08 00:23 21.32960 -157.91828 19 ft 2 kts 10°
2026-05-08 00:23 21.32980 -157.91825 19 ft 5 kts
2026-05-08 00:23 21.33011 -157.91823 19 ft 3 kts 348°
2026-05-08 00:23 21.33027 -157.91841 20 ft 3 kts 298°
2026-05-08 00:24 21.33033 -157.91868 20 ft 4 kts 283°
2026-05-08 00:24 21.33039 -157.91900 21 ft 3 kts 279°
2026-05-08 00:24 21.33042 -157.91922 21 ft 4 kts 278°
2026-05-08 00:24 21.33044 -157.91938 20 ft 0 kts 278°
2026-05-08 00:25 21.33044 -157.91939 20 ft 0 kts 278°